| time (UTC) | temp C | wind direction | speed KPH | gust KPH | rain 1hr cm | rain 24hr cm | rain mn cm | humidity % | barometer mb |
| 20260503231504 | 16 | 331 | 1.6 | 4.8 | 0.00 | 0.00 | 0.00 | 47 | 1016.5 |
| 20260503230013 | 17 | 12 | 1.6 | 4.8 | 0.00 | 0.00 | 0.00 | 46 | 1016.5 |
| 20260503224504 | 17 | 338 | 1.6 | 8.0 | 0.00 | 0.00 | 0.00 | 46 | 1016.5 |
| 20260503223004 | 17 | 52 | 3.2 | 8.0 | 0.00 | 0.00 | 0.00 | 45 | 1016.6 |
| 20260503221504 | 18 | 348 | 0.0 | 11.3 | 0.00 | 0.00 | 0.00 | 43 | 1016.6 |
| 20260503220004 | 18 | 127 | 1.6 | 6.4 | 0.00 | 0.00 | 0.00 | 43 | 1016.5 |
| 20260503214510 | 18 | 151 | 1.6 | 8.0 | 0.00 | 0.00 | 0.00 | 44 | 1016.6 |
| 20260503213004 | 18 | 306 | 1.6 | 4.8 | 0.00 | 0.00 | 0.00 | 41 | 1016.7 |
| 20260503211505 | 19 | 342 | 1.6 | 12.9 | 0.00 | 0.00 | 0.00 | 39 | 1016.8 |
| 20260503210007 | 19 | 347 | 1.6 | 6.4 | 0.00 | 0.00 | 0.00 | 37 | 1016.8 |
| 20260503204506 | 19 | 218 | 0.0 | 9.7 | 0.00 | 0.00 | 0.00 | 37 | 1016.9 |
| 20260503203009 | 20 | 14 | 4.8 | 14.5 | 0.00 | 0.00 | 0.00 | 37 | 1017.2 |
| 20260503201504 | 20 | 194 | 1.6 | 8.0 | 0.00 | 0.00 | 0.00 | 40 | 1017.5 |
| 20260503200010 | 19 | 217 | 3.2 | 8.0 | 0.00 | 0.00 | 0.00 | 41 | 1017.7 |
| 20260503194509 | 19 | 271 | 1.6 | 11.3 | 0.00 | 0.00 | 0.00 | 39 | 1018.0 |
| 20260503193011 | 19 | 249 | 1.6 | 8.0 | 0.00 | 0.00 | 0.00 | 36 | 1018.2 |
| 20260503191524 | 18 | 219 | 3.2 | 6.4 | 0.00 | 0.00 | 0.00 | 36 | 1018.4 |
| 20260503190009 | 18 | 23 | 1.6 | 8.0 | 0.00 | 0.00 | 0.00 | 38 | 1018.4 |
| 20260503184508 | 18 | 246 | 1.6 | 6.4 | 0.00 | 0.00 | 0.00 | 39 | 1018.6 |
| 20260503183009 | 18 | 187 | 1.6 | 6.4 | 0.00 | 0.00 | 0.00 | 39 | 1018.7 |
| 20260503181508 | 18 | 348 | 1.6 | 8.0 | 0.00 | 0.00 | 0.00 | 40 | 1018.8 |
| 20260503180010 | 17 | 134 | 4.8 | 17.7 | 0.00 | 0.00 | 0.00 | 41 | 1019.1 |
| 20260503174509 | 17 | 57 | 0.0 | 8.0 | 0.00 | 0.00 | 0.00 | 44 | 1019.1 |
| 20260503173010 | 17 | 194 | 1.6 | 8.0 | 0.00 | 0.00 | 0.00 | 42 | 1019.2 |
| 20260503171512 | 17 | 164 | 3.2 | 6.4 | 0.00 | 0.00 | 0.00 | 45 | 1019.6 |
| 20260503081522 | 3 | 157 | 0.0 | 0.0 | 0.00 | 0.00 | 0.00 | 89 | 1018.4 |
| 20260503071512 | 3 | 180 | 0.0 | 0.0 | 0.00 | 0.00 | 0.00 | 87 | 1017.7 |
| 20260503054529 | 5 | 20 | 0.0 | 0.0 | 0.00 | 0.00 | 0.00 | 81 | 1017.5 |
| 20260503053029 | 5 | 20 | 0.0 | 0.0 | 0.00 | 0.00 | 0.00 | 81 | 1017.5 |
| 20260503051508 | 5 | 20 | 0.0 | 0.0 | 0.00 | 0.00 | 0.00 | 81 | 1017.6 |
| 20260503050014 | 5 | 20 | 0.0 | 0.0 | 0.00 | 0.00 | 0.00 | 79 | 1017.5 |
| 20260503044505 | 5 | 20 | 0.0 | 0.0 | 0.00 | 0.00 | 0.00 | 78 | 1017.4 |
| 20260503043003 | 6 | 20 | 0.0 | 0.0 | 0.00 | 0.00 | 0.00 | 76 | 1017.4 |
| 20260503041507 | 6 | 20 | 0.0 | 0.0 | 0.00 | 0.00 | 0.00 | 75 | 1017.3 |
| 20260503040011 | 6 | 20 | 0.0 | 1.6 | 0.00 | 0.00 | 0.00 | 73 | 1017.2 |
| 20260503034512 | 7 | 20 | 0.0 | 0.0 | 0.00 | 0.00 | 0.00 | 70 | 1017.0 |
| 20260503033004 | 8 | 20 | 0.0 | 0.0 | 0.00 | 0.00 | 0.00 | 67 | 1016.8 |
| 20260503031505 | 8 | 20 | 0.0 | 0.0 | 0.00 | 0.00 | 0.00 | 63 | 1016.7 |
| 20260503030007 | 10 | 20 | 0.0 | 3.2 | 0.00 | 0.00 | 0.00 | 58 | 1016.6 |
| 20260503024514 | 11 | 9 | 1.6 | 3.2 | 0.00 | 0.00 | 0.00 | 54 | 1016.5 |
| 20260503023018 | 12 | 148 | 3.2 | 11.3 | 0.00 | 0.00 | 0.00 | 47 | 1015.9 |
| 20260503021505 | 11 | 152 | 4.8 | 9.7 | 0.00 | 0.00 | 0.00 | 47 | 1015.9 |
| 20260503020007 | 12 | 326 | 1.6 | 17.7 | 0.00 | 0.00 | 0.00 | 48 | 1015.7 |
| 20260503014509 | 12 | 157 | 6.4 | 12.9 | 0.00 | 0.00 | 0.00 | 45 | 1015.2 |
| 20260503013024 | 12 | 182 | 3.2 | 17.7 | 0.00 | 0.00 | 0.00 | 46 | 1015.0 |
| 20260503011520 | 12 | 162 | 6.4 | 12.9 | 0.00 | 0.00 | 0.00 | 46 | 1014.8 |
| 20260503010006 | 10 | 313 | 1.6 | 4.8 | 0.00 | 0.00 | 0.00 | 62 | 1014.6 |
| 20260503004506 | 10 | 261 | 0.0 | 3.2 | 0.00 | 0.00 | 0.00 | 58 | 1014.3 |
| 20260503003010 | 11 | 272 | 0.0 | 3.2 | 0.00 | 0.00 | 0.00 | 56 | 1014.1 |
| 20260503001518 | 13 | 5 | 1.6 | 11.3 | 0.00 | 0.00 | 0.00 | 52 | 1013.9 |
| 20260503000026 | 13 | 51 | 0.0 | 9.7 | 0.00 | 0.00 | 0.00 | 50 | 1013.7 |
| 20260502234505 | 13 | 140 | 6.4 | 14.5 | 0.00 | 0.00 | 0.00 | 45 | 1013.6 |
| 20260502233019 | 14 | 203 | 6.4 | 17.7 | 0.00 | 0.00 | 0.00 | 43 | 1013.4 |